Theta_e
316 316 316 318 319 320 320 319 318 316 314 312 311 310 310 310 311 311 314 318 317 315 316 335 337 342 348 350 351 350 353 351 348 350 351 351 351 349 347 347 347 348 349 348 348
309 310 310 311 312 314 317 319 319 318 317 316 313 311 311 310 311 312 318 318 316 316 323 337 339 342 347 347 349 352 354 348 347 348 351 351 350 350 348 347 347 349 348 348 348
307 307 307 308 309 309 310 312 317 318 318 317 317 314 312 310 312 317 318 319 318 316 327 336 337 343 342 346 349 350 352 346 345 346 348 351 351 350 348 347 347 348 349 348 348
304 304 304 304 305 306 308 309 312 314 317 317 317 317 313 310 319 321 319 320 320 321 331 337 339 341 341 346 346 350 347 345 345 345 346 350 350 351 348 344 345 348 348 348 348
302 303 303 303 304 304 305 308 310 312 314 317 317 317 314 316 315 315 319 320 318 330 332 337 339 337 340 342 344 347 347 346 346 345 344 346 349 351 349 346 346 348 348 348 347
301 302 302 303 303 304 304 309 312 315 315 316 317 316 314 316 315 313 315 315 327 332 332 336 337 336 339 343 344 342 344 346 345 343 344 349 350 350 350 349 347 347 347 347 347
301 301 301 301 302 303 304 309 312 315 317 317 317 315 316 318 316 313 320 324 331 332 331 334 336 337 336 341 340 342 344 344 341 341 346 348 352 352 351 350 348 348 347 347 347
301 302 302 302 302 303 304 309 312 315 316 317 317 315 319 317 316 314 321 327 332 330 329 329 334 337 334 331 330 335 335 340 341 341 343 347 348 350 351 350 350 348 347 346 347
301 302 302 302 303 303 306 310 312 313 314 317 315 317 321 316 314 315 323 329 332 330 328 330 332 334 337 336 334 332 339 340 343 342 344 346 347 347 350 350 351 349 348 346 346
302 302 302 302 303 303 305 310 311 311 314 319 318 318 318 320 318 313 323 325 333 333 330 332 333 334 337 338 337 336 336 340 344 342 342 345 346 343 347 349 350 350 349 347 345
301 301 302 302 302 303 303 310 314 318 312 322 325 322 322 320 319 314 321 325 332 329 328 328 331 330 329 330 331 334 335 337 339 340 339 341 342 341 341 348 349 350 350 348 345
301 301 301 302 302 302 307 309 306 305 308 311 312 315 322 321 323 316 320 325 329 329 326 326 329 327 327 326 328 330 332 335 337 336 335 339 340 339 339 346 347 350 350 349 348
301 301 301 301 302 304 307 307 306 306 310 314 314 315 315 316 321 321 320 322 328 328 327 326 326 325 326 328 329 330 332 332 335 336 334 335 337 338 340 343 346 348 349 350 349
301 301 301 302 306 305 307 306 307 306 315 317 315 316 315 318 321 322 317 321 324 327 326 326 325 325 326 326 327 329 329 330 330 333 337 336 342 341 340 344 346 347 349 349 349
301 301 301 302 303 307 305 306 305 309 316 319 317 315 316 319 323 321 321 321 323 323 326 326 326 325 326 325 326 327 328 328 329 330 332 335 337 338 340 342 346 347 348 348 349
301 301 302 305 306 305 305 305 308 315 315 321 316 317 318 318 320 321 321 317 319 323 324 324 323 325 325 325 325 325 326 327 328 329 332 333 336 337 338 342 342 345 346 348 348
301 302 302 302 305 304 305 308 312 313 317 320 319 319 320 321 321 321 323 323 325 324 324 324 324 325 325 326 326 325 327 327 328 329 332 333 335 336 336 337 340 342 343 347 348
301 302 302 304 304 302 306 310 309 313 316 315 315 317 320 321 321 321 323 325 325 325 327 327 326 325 326 326 327 326 327 326 330 330 330 331 333 335 335 334 334 338 340 346 348
301 305 305 304 303 305 308 308 308 314 313 314 315 319 322 320 320 321 322 324 325 327 328 328 328 326 326 326 327 327 329 326 327 328 329 330 331 332 333 334 334 335 336 339 343
302 305 304 304 305 307 309 307 310 310 311 313 315 316 319 320 321 321 323 321 325 326 327 328 330 327 325 326 326 327 327 326 327 328 329 328 329 331 332 333 334 335 335 337 338
305 306 304 304 306 307 308 307 307 307 308 311 314 315 316 317 319 321 323 319 320 323 323 327 328 330 326 326 327 326 327 327 326 326 328 329 329 330 331 333 333 334 333 336 338
305 307 304 305 307 307 307 307 306 308 308 310 311 311 314 316 318 320 322 320 315 320 324 326 328 331 328 327 326 327 327 328 328 329 328 328 329 328 329 330 332 332 332 335 337
305 305 304 304 307 307 307 307 306 307 307 310 312 313 313 315 317 318 319 316 314 319 323 325 326 331 331 329 327 327 327 327 327 328 331 329 327 330 331 331 331 332 333 334 335
305 307 305 305 305 306 306 307 307 306 307 306 308 310 312 314 315 316 317 315 313 314 315 318 327 330 332 331 329 328 327 326 327 331 329 330 330 329 328 329 330 331 331 332 334
305 306 305 307 306 305 304 305 306 306 306 306 308 308 309 313 313 314 314 314 314 314 316 318 326 326 328 325 325 329 328 328 329 329 330 330 331 330 330 330 330 330 330 332 334
305 305 305 304 304 304 305 306 306 306 305 306 307 306 308 309 310 312 311 314 314 315 315 316 322 322 325 323 323 325 326 327 328 329 329 330 331 331 330 329 330 329 329 329 329
305 304 305 304 305 304 305 304 306 306 306 305 306 306 306 306 307 307 308 309 311 312 314 314 317 320 325 324 324 326 326 327 327 328 329 330 330 330 330 330 329 329 329 329 329
Wind_Speed
18 18 18 18 18 18 18 18 18 18 18 18 17 18 17 17 19 23 27 20 11 19 11 16 19 18 18 13 8 5 6 7 4 4 10 13 11 8 7 15 8 6 11 24 32
18 19 19 19 19 20 20 20 20 19 19 19 18 17 17 17 19 27 26 21 19 16 20 24 26 23 21 15 9 10 8 2 5 1 5 12 8 12 10 15 12 9 16 31 33
21 21 21 20 20 20 21 22 23 22 21 20 19 16 15 14 16 13 12 13 23 22 21 21 22 24 17 12 13 8 5 1 3 3 3 11 9 9 10 11 15 17 27 34 33
23 22 22 21 21 21 22 23 24 25 24 22 20 16 12 9 5 4 4 10 12 24 23 23 26 25 16 12 15 8 12 5 5 5 1 5 8 10 11 6 15 19 29 36 34
24 24 24 22 22 23 23 25 23 24 24 23 21 15 10 10 18 9 7 3 18 27 28 28 29 26 17 15 12 16 8 7 10 8 7 6 10 7 12 7 16 22 29 33 32
25 26 27 26 25 26 27 25 25 23 21 21 20 15 10 14 11 13 19 14 21 28 29 27 27 23 13 9 15 10 16 10 9 9 6 9 8 10 12 11 19 25 29 32 31
26 26 28 28 28 29 29 24 25 20 17 17 18 14 14 23 13 10 14 18 23 27 30 26 17 25 8 11 11 13 10 11 13 12 7 9 11 12 16 17 21 25 28 30 30
28 28 28 29 29 30 28 23 23 17 13 10 13 12 12 10 16 15 15 19 22 22 21 23 16 25 11 2 8 14 15 14 16 14 9 15 11 16 19 21 22 25 28 29 30
30 30 29 30 31 26 25 24 21 17 11 4 5 9 8 12 17 18 19 21 23 22 19 20 20 22 24 12 12 13 14 19 11 16 9 15 9 16 22 23 23 27 29 30 29
32 32 32 31 30 22 23 24 18 14 6 2 3 6 12 5 9 23 20 17 26 24 19 20 19 16 17 17 17 17 18 16 16 15 13 15 15 6 22 23 24 26 28 30 31
32 32 33 31 29 19 25 15 9 4 7 11 3 7 1 3 8 21 25 26 21 27 17 29 19 26 27 24 20 13 12 18 15 9 13 16 15 12 16 22 23 26 28 30 31
34 34 33 30 22 21 15 6 8 9 18 20 26 30 22 3 10 20 30 22 25 23 21 18 28 23 22 22 21 22 17 19 13 7 9 16 15 13 13 22 25 26 29 30 28
33 33 34 31 16 20 10 8 13 14 10 16 16 19 19 25 15 26 39 31 25 28 30 24 14 24 24 23 23 23 23 18 15 11 14 13 15 15 11 17 23 26 28 27 30
32 31 30 28 9 18 6 18 17 9 6 7 7 6 14 17 15 23 38 36 20 29 28 24 15 26 22 26 25 25 24 18 16 12 13 15 15 19 20 17 18 25 27 31 33
29 27 25 19 16 11 19 21 13 2 7 7 6 6 7 21 7 29 32 40 22 18 28 21 25 23 27 25 24 21 17 18 21 18 17 21 10 16 12 18 19 21 29 31 33
30 27 20 16 12 16 22 19 1 6 9 3 5 6 8 17 10 15 28 37 29 23 24 26 17 23 23 19 23 11 18 15 15 17 19 24 20 17 17 18 18 22 27 31 32
28 22 13 16 16 22 20 8 7 9 6 5 7 5 10 10 18 13 26 31 21 23 28 24 28 19 18 23 20 23 20 11 14 17 20 19 21 20 9 17 20 19 26 30 33
27 17 10 13 20 20 13 8 13 4 8 17 13 18 12 4 12 17 20 26 31 26 17 20 21 29 27 25 23 29 25 13 20 15 18 18 17 22 22 24 8 23 23 25 30
23 12 8 17 18 13 10 8 10 13 14 15 19 11 10 5 6 9 21 23 31 29 26 21 27 26 21 22 24 25 27 25 17 9 10 15 19 16 13 18 25 24 22 27 27
21 8 11 20 14 7 7 5 8 11 16 17 16 5 8 5 8 7 15 6 15 34 7 17 17 20 26 27 26 19 24 22 17 22 20 13 18 13 18 23 19 22 28 25 27
13 5 12 18 10 9 5 8 14 17 14 10 15 14 14 12 9 6 1 7 8 1 6 16 14 22 21 26 26 22 18 23 17 17 13 14 13 16 17 17 22 21 27 29 29
14 4 15 16 4 6 7 10 13 15 16 14 15 17 14 12 11 4 3 9 10 8 12 12 10 13 26 24 25 27 24 27 14 23 20 15 10 8 5 12 18 21 25 27 26
12 7 11 12 5 6 10 12 11 10 10 10 8 15 14 14 6 3 1 5 12 10 2 1 13 15 14 18 24 26 27 24 25 16 21 18 5 8 7 4 3 9 10 15 20
9 5 5 4 3 10 12 10 11 10 5 10 5 12 14 17 12 5 3 3 10 9 12 8 11 21 19 16 18 26 27 29 28 20 19 19 15 13 8 4 7 8 9 7 9
5 4 5 6 8 11 10 12 11 8 10 10 2 6 9 7 10 13 6 10 4 7 6 7 12 7 15 3 5 11 29 30 29 27 26 19 20 19 11 10 8 7 6 4 5
7 6 3 14 8 11 8 8 10 11 12 11 9 12 11 8 12 9 11 7 5 5 5 5 3 6 15 11 9 11 14 16 21 28 27 26 24 13 12 15 24 21 19 18 18
6 8 5 7 9 6 7 8 12 14 9 5 13 15 11 9 14 18 18 18 16 11 8 5 5 7 15 12 11 16 22 21 19 20 18 23 17 16 20 16 17 19 16 18 20
Wind_Direction
348 345 338 329 321 314 310 305 301 296 292 287 282 281 281 280 279 276 262 251 245 227 215 179 180 186 185 200 210 210 241 231 135 191 118 147 134 127 117 141 156 162 154 161 158
360 353 347 341 333 325 314 307 301 296 292 288 282 280 283 287 284 272 268 262 245 219 202 185 181 179 189 201 203 223 263 115 45 47 157 163 163 145 148 153 148 134 134 151 159
358 353 348 344 338 330 323 314 303 298 293 287 282 278 284 295 302 269 254 232 227 210 192 187 182 180 201 197 199 195 255 129 189 197 243 162 175 152 147 174 168 154 153 158 165
356 351 346 342 335 327 321 313 307 299 293 286 282 275 277 277 262 226 192 222 211 176 180 179 181 189 203 202 202 236 237 258 121 129 271 203 162 174 174 103 166 165 165 163 169
356 350 346 343 335 328 321 316 306 301 291 283 277 270 262 245 245 275 212 87 172 170 180 182 189 196 209 199 197 227 238 223 231 256 267 209 195 190 182 144 157 161 168 173 174
355 350 346 342 337 332 325 317 319 312 292 275 268 260 231 248 253 230 235 238 181 179 184 187 194 201 232 212 211 188 236 248 256 242 224 191 176 185 174 157 155 164 173 179 182
354 351 347 342 337 332 327 319 323 323 302 270 257 246 237 240 249 227 199 194 185 186 188 192 196 198 214 213 213 238 234 219 235 228 178 200 170 200 159 166 164 170 177 184 188
349 350 350 347 343 335 329 324 321 321 324 278 246 231 248 265 233 223 191 187 192 192 200 199 201 211 218 277 210 218 223 230 211 198 188 203 210 185 174 174 175 174 178 185 192
349 348 349 347 345 339 334 330 320 315 321 307 215 198 254 251 226 198 185 188 187 189 198 197 208 216 219 235 219 203 211 215 167 191 176 207 225 155 180 185 182 182 182 187 192
353 350 348 348 346 337 343 334 322 322 329 306 205 215 235 236 203 193 183 178 174 173 180 192 199 211 217 213 216 203 219 205 210 189 204 208 243 169 184 201 194 192 188 189 195
354 351 349 351 349 346 344 341 326 255 270 245 257 247 231 224 171 185 179 164 169 177 184 192 199 207 204 214 228 234 216 223 205 169 219 232 237 233 194 205 203 193 198 197 199
354 351 350 352 349 346 8 51 51 332 300 272 253 243 233 247 212 184 176 170 174 185 187 183 216 211 215 209 222 229 227 227 222 183 240 250 238 235 195 211 211 199 204 205 197
353 350 349 353 353 359 29 36 337 332 265 283 239 238 226 209 218 187 186 192 188 190 196 199 206 213 205 212 213 224 222 223 231 206 237 255 252 242 216 207 212 212 210 206 204
354 349 350 355 14 3 356 334 326 317 275 208 210 233 191 187 219 202 198 191 197 202 198 221 199 195 202 215 211 220 222 242 241 230 237 198 252 222 217 203 209 211 208 203 206
355 349 351 356 343 360 330 329 320 255 272 98 138 167 170 194 121 192 198 203 201 200 201 204 214 196 211 210 207 229 220 221 235 245 255 249 248 253 207 216 210 211 208 209 204
355 350 354 355 348 331 334 332 291 228 238 134 127 189 184 214 220 164 185 205 220 216 211 222 208 217 219 214 219 213 227 224 232 236 240 238 242 246 239 213 221 212 214 210 207
355 351 354 356 333 331 334 324 242 242 46 47 359 339 292 218 213 184 194 197 200 207 214 212 225 218 211 214 210 204 199 199 215 223 237 233 233 235 248 235 215 222 210 211 206
354 350 342 351 342 333 333 253 254 314 9 338 317 298 241 191 227 201 195 203 215 206 193 207 217 204 202 210 200 199 207 209 212 219 228 216 239 237 233 234 258 228 213 208 207
357 350 5 336 340 338 299 251 284 12 349 322 312 281 199 206 304 219 215 214 208 216 227 199 227 182 200 200 201 197 216 222 250 218 265 230 218 245 249 229 223 217 218 213 207
355 354 358 344 338 336 270 310 343 343 334 314 298 344 313 341 282 224 188 19 245 211 240 255 221 192 196 198 216 210 203 216 226 240 242 233 238 233 214 219 223 220 217 211 209
353 332 347 345 346 311 350 338 322 327 326 307 304 304 294 304 294 272 92 41 346 230 260 249 233 189 183 203 198 201 208 217 224 223 227 237 242 226 231 216 219 219 216 216 211
355 329 343 3 331 349 354 332 317 321 330 302 282 275 293 301 289 271 143 23 353 297 221 220 231 218 206 202 212 204 205 203 213 211 237 266 244 122 238 228 218 222 219 219 215
346 317 341 8 15 353 337 318 313 328 336 342 314 339 308 274 274 279 41 47 4 1 354 127 222 210 204 206 201 219 200 214 216 232 216 220 224 125 130 117 201 231 225 223 226
339 319 350 348 5 347 334 314 325 332 327 339 343 301 313 263 240 272 305 19 344 1 329 269 250 226 216 204 205 211 213 214 212 223 230 219 236 196 212 213 172 192 206 201 215
338 19 345 322 335 331 308 292 302 337 340 329 65 7 352 290 264 256 302 306 270 5 328 325 228 235 255 308 270 258 216 211 221 222 228 233 222 236 241 245 290 307 293 223 213
312 330 282 297 275 294 296 302 304 342 332 316 325 352 329 324 310 319 328 310 315 324 331 338 218 264 249 232 233 240 231 241 240 233 233 241 248 248 218 249 269 266 280 277 274
282 292 260 273 290 296 301 316 309 312 303 253 323 318 307 300 298 299 292 283 282 291 301 289 285 246 231 216 250 249 229 225 231 233 238 239 247 258 261 259 260 277 276 279 283